CW5066 Weather Reports


Display with metric or nautical units.
time (UTC)temp
F
wind
direction
speed
MPH
gust
MPH
rain 1hr
in
rain 24hr
in
rain mn
in
humidity
%
barometer
mb
20180524074451 49 249 1.0 3.0 0.00 0.00 0.00 38 1026.6
20180524073450 49 232 1.0 3.0 0.00 0.00 0.00 38 1026.7
20180524072450 49 201 1.0 4.0 0.00 0.00 0.00 38 1026.8
20180524071450 48 72 1.0 4.0 0.00 0.00 0.00 40 1026.4
20180524070450 48 81 2.0 6.0 0.00 0.00 0.00 40 1025.8
20180524065450 48 81 3.0 6.0 0.00 0.00 0.00 41 1025.9
20180524064450 49 205 0.0 3.0 0.00 0.00 0.00 38 1025.9
20180524063456 49 222 0.0 4.0 0.00 0.00 0.00 37 1025.8
20180524062450 50 109 2.0 3.0 0.00 0.01 0.00 36 1025.1
20180524061450 50 352 1.0 7.0 0.00 0.01 0.00 36 1025.1
20180524060450 49 3 1.0 6.0 0.00 0.01 0.00 37 1024.4
20180524055451 48 49 3.0 10.0 0.00 0.01 0.01 39 1024.9
20180524054451 48 63 3.0 7.0 0.00 0.01 0.01 40 1024.8
20180524053456 49 40 3.0 7.0 0.00 0.01 0.01 39 1024.7
20180524052451 50 69 3.0 6.0 0.00 0.01 0.01 37 1025.9
20180524051451 51 92 3.0 7.0 0.00 0.01 0.01 36 1026.3
20180524050451 51 155 3.0 6.0 0.00 0.01 0.01 34 1026.0
20180524045451 51 171 2.0 7.0 0.00 0.01 0.01 36 1025.4
20180524044452 51 174 5.0 8.0 0.00 0.01 0.01 35 1024.7
20180524043451 51 195 1.0 3.0 0.00 0.01 0.01 35 1024.5
20180524042451 51 256 0.0 2.0 0.00 0.01 0.01 35 1024.5
20180524041451 51 265 0.0 3.0 0.00 0.01 0.01 35 1025.1
20180524040451 51 269 1.0 3.0 0.00 0.01 0.01 35 1025.6
20180524035451 51 263 2.0 6.0 0.00 0.01 0.01 35 1025.4
20180524034451 51 233 2.0 4.0 0.00 0.01 0.01 36 1024.7
20180524033452 52 264 2.0 5.0 0.00 0.01 0.01 36 1023.9
20180524032451 52 277 2.0 5.0 0.00 0.01 0.01 38 1024.0
20180524031451 52 291 3.0 6.0 0.00 0.01 0.01 40 1024.2
20180524030451 53 250 1.0 7.0 0.00 0.01 0.01 39 1024.1
20180524025451 53 186 3.0 7.0 0.00 0.01 0.01 38 1024.0
20180524024451 54 147 1.0 4.0 0.00 0.01 0.01 36 1023.8
20180524023451 54 0.0 1.0 0.00 0.01 0.01 34 1023.6
20180524022451 54 189 0.0 3.0 0.00 0.01 0.01 33 1023.8
20180524021451 55 236 0.0 3.0 0.00 0.01 0.01 33 1023.7
20180524020451 56 334 2.0 6.0 0.00 0.01 0.01 31 1023.5
20180524015451 57 324 3.0 7.0 0.00 0.01 0.01 29 1023.9
20180524014450 58 327 2.0 11.0 0.00 0.01 0.01 28 1023.1
20180524013450 60 300 5.0 11.0 0.00 0.01 0.01 26 1023.7
20180524012450 60 303 5.0 13.0 0.00 0.01 0.01 25 1023.5
20180524011450 60 242 3.0 10.0 0.00 0.01 0.01 27 1023.5
20180524010450 60 240 4.0 11.0 0.00 0.01 0.01 26 1023.0
20180524005450 61 251 4.0 12.0 0.00 0.01 0.01 25 1022.9
20180524004500 61 228 5.0 12.0 0.00 0.01 0.01 25 1022.8
20180524003451 61 314 3.0 11.0 0.00 0.01 0.01 26 1022.7
20180524002450 59 244 6.0 11.0 0.00 0.01 0.01 27 1022.9
20180524001450 58 210 4.0 10.0 0.00 0.01 0.01 30 1023.0
20180524000450 58 250 5.0 13.0 0.00 0.01 0.01 29 1022.8
20180523235450 58 238 8.0 19.0 0.00 0.01 0.01 28 1022.1
20180523234450 56 287 5.0 19.0 0.00 0.01 0.01 31 1022.2
20180523233450 56 307 10.0 24.0 0.00 0.01 0.01 31 1021.7
20180523232450 56 270 8.0 17.0 0.00 0.01 0.01 30 1022.4
20180523231450 57 240 5.0 9.0 0.00 0.01 0.01 27 1022.2
20180523230450 57 254 4.0 9.0 0.00 0.01 0.01 27 1022.2
20180523225450 57 228 9.0 20.0 0.00 0.01 0.01 27 1022.4
20180523224450 57 215 7.0 16.0 0.00 0.01 0.01 28 1022.4
20180523223450 58 230 4.0 13.0 0.00 0.01 0.01 27 1022.1
20180523222450 58 288 5.0 15.0 0.00 0.01 0.01 26 1022.0
20180523221450 60 274 7.0 14.0 0.00 0.01 0.01 26 1022.1
20180523220450 58 241 3.0 10.0 0.00 0.01 0.01 28 1021.7
20180523215450 58 236 5.0 10.0 0.00 0.01 0.01 26 1021.4
20180523214450 58 244 5.0 12.0 0.00 0.01 0.01 27 1021.4
20180523213455 58 205 6.0 16.0 0.00 0.01 0.01 27 1021.9
20180523212450 59 200 8.0 17.0 0.00 0.01 0.01 27 1021.9
20180523211450 59 192 7.0 13.0 0.00 0.01 0.01 26 1022.4
20180523210450 60 212 4.0 10.0 0.00 0.01 0.01 26 1022.4
20180523205450 58 234 2.0 7.0 0.00 0.01 0.01 32 1022.1
20180523204450 58 140 2.0 6.0 0.00 0.01 0.01 31 1022.0
20180523203450 57 187 1.0 4.0 0.00 0.01 0.01 37 1022.3
20180523202450 56 308 0.0 9.0 0.00 0.01 0.01 35 1021.7
20180523201450 56 333 2.0 12.0 0.00 0.01 0.01 33 1021.7
20180523200611 58 267 4.0 10.0 0.00 0.01 0.01 32 1022.3
20180523195506 59 199 7.0 18.0 0.00 0.01 0.01 31 1022.9
20180523194450 59 208 10.0 19.0 0.00 0.01 0.01 29 1022.1
20180523193450 59 205 9.0 26.0 0.00 0.01 0.01 27 1021.9
20180523192450 59 215 11.0 24.0 0.00 0.01 0.01 30 1021.7
20180523191451 58 211 9.0 22.0 0.00 0.01 0.01 31 1021.8
20180523190450 57 201 4.0 11.0 0.00 0.01 0.01 35 1021.4
20180523185450 55 200 6.0 18.0 0.00 0.01 0.01 36 1021.7
20180523184450 55 200 7.0 19.0 0.00 0.01 0.01 36 1021.7
20180523183450 54 224 9.0 18.0 0.00 0.01 0.01 36 1021.1
20180523182450 53 210 12.0 22.0 0.00 0.01 0.01 39 1021.9
20180523181450 53 206 12.0 25.0 0.00 0.01 0.01 38 1022.2
20180523180450 51 242 5.0 31.0 0.00 0.01 0.01 37 1021.2
20180523175450 52 236 12.0 29.0 0.00 0.01 0.01 39 1021.0
20180523174452 54 241 8.0 16.0 0.00 0.01 0.01 34 1021.3
20180523173452 54 206 7.0 19.0 0.00 0.01 0.01 34 1021.2
20180523172452 55 201 10.0 19.0 0.00 0.01 0.01 37 1021.2
20180523171452 56 182 5.0 15.0 0.00 0.01 0.01 46 1022.0
20180523170452 56 158 3.0 12.0 0.00 0.01 0.01 55 1022.2
20180523165452 55 177 4.0 11.0 0.00 0.01 0.01 44 1021.9
20180523164451 54 132 3.0 9.0 0.00 0.01 0.01 59 1022.3
20180523163450 53 174 3.0 11.0 0.00 0.01 0.01 58 1021.8
20180523162451 53 140 3.0 12.0 0.00 0.01 0.01 57 1021.8
20180523161451 53 133 5.0 12.0 0.00 0.01 0.01 53 1021.7
20180523160451 54 161 4.0 8.0 0.00 0.01 0.01 54 1022.4
20180523155451 56 114 5.0 9.0 0.00 0.01 0.01 51 1023.1
20180523154452 55 134 5.0 12.0 0.00 0.01 0.01 54 1022.7
20180523153451 53 216 2.0 7.0 0.00 0.01 0.01 58 1022.2
20180523152451 52 174 1.0 4.0 0.00 0.01 0.01 57 1022.3
20180523151451 52 220 2.0 5.0 0.00 0.01 0.01 55 1022.3
20180523150452 52 187 1.0 3.0 0.00 0.01 0.01 52 1022.9
20180523145451 51 210 0.0 3.0 0.00 0.01 0.01 54 1022.4
20180523144451 50 249 0.0 3.0 0.00 0.01 0.01 53 1022.5
20180523143452 49 222 0.0 3.0 0.00 0.01 0.01 53 1022.4
20180523142451 49 195 1.0 3.0 0.00 0.01 0.01 58 1022.4
20180523141451 48 222 0.0 2.0 0.00 0.01 0.01 60 1022.9
20180523140451 48 194 0.0 3.0 0.00 0.01 0.01 62 1022.2
20180523135451 48 171 1.0 4.0 0.00 0.01 0.01 61 1022.9
20180523134451 47 137 3.0 7.0 0.00 0.01 0.01 67 1023.0
20180523133452 47 141 0.0 4.0 0.00 0.01 0.01 69 1022.5
20180523132451 45 197 0.0 3.0 0.00 0.01 0.01 67 1022.4
20180523131451 45 203 0.0 2.0 0.00 0.01 0.01 67 1021.7
20180523130451 44 202 1.0 2.0 0.00 0.01 0.01 67 1021.0
20180523125451 44 189 1.0 3.0 0.00 0.01 0.01 68 1021.0
20180523124451 43 189 2.0 4.0 0.00 0.01 0.01 69 1020.3
20180523123451 43 185 2.0 4.0 0.00 0.01 0.01 70 1020.3
20180523122451 43 185 2.0 4.0 0.00 0.01 0.01 71 1021.0
20180523121451 44 161 1.0 5.0 0.00 0.01 0.01 71 1022.1
20180523120451 44 130 3.0 5.0 0.00 0.01 0.01 71 1022.6
20180523115451 44 159 1.0 3.0 0.00 0.01 0.01 71 1023.2
20180523114451 44 159 1.0 3.0 0.00 0.01 0.01 71 1023.2
20180523113451 44 199 1.0 6.0 0.00 0.01 0.01 71 1023.9
20180523112451 44 180 2.0 4.0 0.00 0.01 0.01 71 1023.1
20180523111451 44 195 2.0 3.0 0.00 0.01 0.01 70 1023.4
20180523110451 44 189 2.0 4.0 0.00 0.01 0.01 70 1023.4
20180523105451 45 183 2.0 3.0 0.00 0.01 0.01 70 1023.4
20180523104451 45 176 2.0 4.0 0.00 0.01 0.01 70 1023.4
20180523103451 44 184 2.0 3.0 0.00 0.01 0.01 72 1023.5
20180523102451 43 193 0.0 2.0 0.00 0.01 0.01 72 1023.4
20180523101451 43 0.0 0.0 0.00 0.01 0.01 73 1022.8
20180523100451 42 0.0 0.0 0.00 0.01 0.01 74 1023.3
20180523095451 42 0.0 0.0 0.00 0.01 0.01 75 1023.2
20180523094452 42 0.0 0.0 0.00 0.01 0.01 75 1022.6
20180523093450 42 192 0.0 3.0 0.00 0.01 0.01 75 1022.5
20180523092450 43 192 3.0 5.0 0.00 0.01 0.01 75 1022.3
20180523091451 43 185 2.0 4.0 0.00 0.01 0.01 74 1022.3
20180523090450 44 171 2.0 7.0 0.00 0.01 0.01 73 1022.2
20180523085450 44 169 2.0 6.0 0.00 0.01 0.01 75 1022.0
20180523084450 43 174 3.0 6.0 0.00 0.01 0.01 76 1022.1
20180523083450 44 180 2.0 3.0 0.00 0.01 0.01 75 1022.6
20180523082451 44 173 3.0 7.0 0.00 0.01 0.01 75 1022.0
20180523081451 43 157 3.0 4.0 0.00 0.01 0.01 75 1022.1
20180523080450 43 182 3.0 4.0 0.00 0.01 0.01 75 1022.0
20180523075451 44 167 2.0 3.0 0.00 0.01 0.01 74 1022.0